Brandy Station, VA

7:03 PM EST on February 07, 2016 (GMT -0500)
Culpeper Regional

Weather History for KCJR - November, 2011

Change the Weather History Date:

Monday, November 21, 2011

  Actual Average (KCHO) Record (KCHO)
Temperature  
Mean Temperature 60 °F 45 °F  
Max Temperature 66 °F 55 °F - ()
Min Temperature 53 °F 35 °F - ()
Degree Days  
Heating Degree Days 6 20  
Month to date heating degree days 347  
Since 1 July heating degree days 696  
Cooling Degree Days 0 0  
Month to date cooling degree days 0  
Year to date cooling degree days 1034  
Growing Degree Days 10 (Base 50)    
Moisture  
Dew Point 56 °F    
Average Humidity 90    
Maximum Humidity 100    
Minimum Humidity 73    
Precipitation  
Precipitation 0.06 in 0.12 in - ()
Month to date precipitation 2.67  
Year to date precipitation 38.40  
Sea Level Pressure  
Sea Level Pressure 30.20 in    
Wind  
Wind Speed 2 mph (NNE)    
Max Wind Speed 9 mph    
Max Gust Speed -    
Visibility 8 miles    
Events Rain    
T = Trace of Precipitation, MM = Missing Value Source: NWS Daily Summary

Daily Weather History Graph

Daily Weather History Graph

Search for Another Location

Airport or City:

Trip Planner

Search our weather history database for the weather conditions in past years. The results will help you decide how hot, cold, wet, or windy it might be!

Date:

Astronomy

Nov. 21, 2011 Rise Set
Actual Time 6:59 AM EST 4:54 PM EST
Civil Twilight 6:30 AM EST 5:23 PM EST
Nautical Twilight 5:58 AM EST 5:55 PM EST
Astronomical Twilight 5:26 AM EST 6:27 PM EST
Moon 2:38 AM EST (11/21) 2:13 PM EST (11/21)
Length of Visible Light 10h 52m
Length of Day
9h 55m
Waning Crescent, 18% of the Moon is Illuminated
Nov 21
Waning Crescent
Nov 25
New
Dec 2
First Quarter
Dec 10
Full
Dec 17
Last Quarter

Hourly Weather History & Observations

Time (EST) Temp. Dew Point Humidity Pressure Visibility Wind Dir Wind Speed Gust Speed Precip Events Conditions
12:15 AM 57.2 °F 53.6 °F 88% 30.13 in 10.0 mi Calm Calm - N/A   Overcast
12:35 AM 57.2 °F 53.6 °F 88% 30.14 in 10.0 mi Calm Calm - N/A   Overcast
12:55 AM 57.2 °F 53.6 °F 88% 30.14 in 10.0 mi NNE 3.5 mph - N/A   Overcast
1:15 AM 57.2 °F 53.6 °F 88% 30.14 in 10.0 mi North 3.5 mph - N/A   Overcast
1:35 AM 57.2 °F 53.6 °F 88% 30.13 in 10.0 mi North 3.5 mph - N/A   Overcast
1:55 AM 57.2 °F 55.4 °F 94% 30.13 in 10.0 mi North 3.5 mph - N/A Rain Light Rain
2:15 AM 57.2 °F 55.4 °F 94% 30.14 in 5.0 mi Calm Calm - N/A Rain Rain
2:35 AM 57.2 °F 55.4 °F 94% 30.15 in 7.0 mi North 3.5 mph - 0.01 in Rain Rain
2:55 AM 57.2 °F 57.2 °F 100% 30.15 in 5.0 mi Calm Calm - 0.02 in Rain Rain
3:15 AM 57.2 °F 57.2 °F 100% 30.15 in 7.0 mi NNE 3.5 mph - 0.01 in Rain Light Rain
3:35 AM 57.2 °F 57.2 °F 100% 30.14 in 7.0 mi NNE 3.5 mph - 0.01 in   Overcast
3:55 AM 57.2 °F 57.2 °F 100% 30.17 in 7.0 mi North 5.8 mph - 0.01 in   Overcast
4:15 AM 57.2 °F 57.2 °F 100% 30.16 in 5.0 mi Calm Calm - N/A   Overcast
4:35 AM 57.2 °F 57.2 °F 100% 30.16 in 5.0 mi Calm Calm - N/A   Overcast
4:55 AM 57.2 °F 55.4 °F 94% 30.16 in 2.5 mi Calm Calm - N/A   Overcast
5:15 AM 55.4 °F 55.4 °F 100% 30.16 in 2.0 mi Calm Calm - N/A   Overcast
5:35 AM 55.4 °F 55.4 °F 100% 30.15 in 2.5 mi Calm Calm - N/A   Overcast
5:55 AM 57.2 °F 57.2 °F 100% 30.18 in 4.0 mi North 4.6 mph - N/A   Overcast
6:15 AM 57.2 °F 57.2 °F 100% 30.20 in 7.0 mi Calm Calm - N/A   Overcast
6:35 AM 57.2 °F 55.4 °F 94% 30.20 in 5.0 mi Calm Calm - N/A   Overcast
6:55 AM 57.2 °F 55.4 °F 94% 30.21 in 2.5 mi Calm Calm - N/A   Overcast
7:15 AM 57.2 °F 55.4 °F 94% 30.22 in 4.0 mi Calm Calm - N/A   Overcast
7:35 AM 57.2 °F 55.4 °F 94% 30.22 in 2.5 mi Calm Calm - N/A   Overcast
7:55 AM 57.2 °F 57.2 °F 100% 30.23 in 4.0 mi Calm Calm - N/A   Overcast
8:15 AM 57.2 °F 57.2 °F 100% 30.22 in 4.0 mi Calm Calm - N/A   Overcast
8:35 AM 59.0 °F 57.2 °F 94% 30.24 in 10.0 mi Calm Calm - N/A   Scattered Clouds
8:55 AM 60.8 °F 57.2 °F 88% 30.24 in 10.0 mi Calm Calm - N/A   Scattered Clouds
9:15 AM 60.8 °F 57.2 °F 88% 30.25 in 10.0 mi Calm Calm - N/A   Clear
9:35 AM 62.6 °F 59.0 °F 88% 30.25 in 10.0 mi Calm Calm - N/A   Mostly Cloudy
9:55 AM 62.6 °F 59.0 °F 88% 30.25 in 10.0 mi Calm Calm - N/A   Overcast
10:15 AM 64.4 °F 59.0 °F 83% 30.24 in 10.0 mi Calm Calm - N/A   Scattered Clouds
10:35 AM 64.4 °F 59.0 °F 83% 30.24 in 10.0 mi Calm Calm - N/A   Clear
10:55 AM 64.4 °F 59.0 °F 83% 30.25 in 10.0 mi Calm Calm - N/A   Scattered Clouds
11:15 AM 66.2 °F 59.0 °F 78% 30.24 in 10.0 mi East 3.5 mph - N/A   Scattered Clouds
11:35 AM 66.2 °F 57.2 °F 73% 30.23 in 10.0 mi ENE 3.5 mph - N/A   Scattered Clouds
11:55 AM 64.4 °F 57.2 °F 77% 30.22 in 10.0 mi Calm Calm - N/A   Scattered Clouds
12:15 PM 64.4 °F 57.2 °F 77% 30.21 in 10.0 mi Calm Calm - N/A   Clear
12:35 PM 64.4 °F 57.2 °F 77% 30.21 in 10.0 mi Calm Calm - N/A   Clear
12:55 PM 66.2 °F 57.2 °F 73% 30.20 in 10.0 mi Calm Calm - N/A   Clear
1:15 PM 66.2 °F 57.2 °F 73% 30.19 in 10.0 mi Calm Calm - N/A   Clear
1:35 PM 66.2 °F 57.2 °F 73% 30.20 in 10.0 mi Calm Calm - N/A   Scattered Clouds
1:55 PM 66.2 °F 57.2 °F 73% 30.20 in 10.0 mi Calm Calm - N/A   Mostly Cloudy
2:15 PM 66.2 °F 57.2 °F 73% 30.18 in 10.0 mi Calm Calm - N/A   Mostly Cloudy
2:35 PM 66.2 °F 57.2 °F 73% 30.18 in 10.0 mi Calm Calm - N/A   Overcast
3:15 PM 62.6 °F 57.2 °F 82% 30.20 in 10.0 mi NE 4.6 mph - N/A   Overcast
3:35 PM 62.6 °F 57.2 °F 82% 30.21 in 10.0 mi NNE 3.5 mph - N/A   Overcast
4:15 PM 60.8 °F 57.2 °F 88% 30.21 in 10.0 mi Calm Calm - N/A   Overcast
4:35 PM 60.8 °F 57.2 °F 88% 30.22 in 7.0 mi NNE 4.6 mph - N/A   Overcast
4:55 PM 59.0 °F 55.4 °F 88% 30.22 in 7.0 mi NNE 3.5 mph - N/A   Overcast
5:15 PM 57.2 °F 55.4 °F 94% 30.23 in 7.0 mi NNE 5.8 mph - N/A   Overcast
5:55 PM 55.4 °F 55.4 °F 100% 30.23 in 3.0 mi NNE 3.5 mph - N/A Rain Rain
6:15 PM 55.4 °F 55.4 °F 100% 30.24 in 3.0 mi Calm Calm - N/A   Overcast
6:35 PM 55.4 °F 53.6 °F 94% 30.25 in 3.0 mi North 8.1 mph - 0.01 in Rain Rain
6:55 PM 55.4 °F 53.6 °F 94% 30.25 in 4.0 mi NNE 3.5 mph - 0.03 in   Heavy Drizzle
7:15 PM 55.4 °F 53.6 °F 94% 30.25 in 5.0 mi Calm Calm - N/A   Light Drizzle
7:35 PM 53.6 °F 53.6 °F 100% 30.25 in 7.0 mi North 9.2 mph - N/A   Overcast
7:55 PM 53.6 °F 53.6 °F 100% 30.25 in 10.0 mi NNE 6.9 mph - N/A   Overcast
8:15 PM 53.6 °F 51.8 °F 94% 30.25 in 10.0 mi NE 3.5 mph - N/A   Overcast
8:35 PM 53.6 °F 51.8 °F 94% 30.25 in 10.0 mi NNE 6.9 mph - N/A   Overcast
8:55 PM 53.6 °F 51.8 °F 94% 30.25 in 10.0 mi North 6.9 mph - N/A   Overcast
9:15 PM 53.6 °F 51.8 °F 94% 30.25 in 7.0 mi NNE 4.6 mph - N/A   Overcast
9:35 PM 53.6 °F 51.8 °F 94% 30.25 in 5.0 mi NNE 4.6 mph - N/A   Overcast
9:55 PM 53.6 °F 51.8 °F 94% 30.25 in 5.0 mi North 3.5 mph - N/A   Overcast
10:15 PM 51.8 °F 51.8 °F 100% 30.25 in 7.0 mi North 5.8 mph - N/A   Overcast
10:35 PM 51.8 °F 51.8 °F 100% 30.25 in 7.0 mi North 4.6 mph - N/A   Overcast
10:55 PM 51.8 °F 51.8 °F 100% 30.25 in 4.0 mi NNW 5.8 mph - N/A Rain Rain
11:15 PM 51.8 °F 50.0 °F 94% 30.25 in 3.0 mi North 6.9 mph - N/A   Heavy Drizzle
11:35 PM 51.8 °F 50.0 °F 94% 30.25 in 4.0 mi North 3.5 mph - 0.01 in Rain Rain
11:55 PM 51.8 °F 50.0 °F 94% 30.24 in 5.0 mi North 3.5 mph - 0.01 in   Drizzle